<?xml version="1.0" encoding="UTF-8" standalone="no" ?>
<gpx xmlns="http://www.topografix.com/GPX/1/1" xmlns:xsi="http://www.w3.org/2001/XMLSchema-instance" xsi:schemaLocation="http://www.topografix.com/GPX/1/1 http://www.topografix.com/GPX/1/1/gpx.xsd" version="1.1" creator="VisuGPX - https://www.visugpx.com">
  <metadata>
    <name>mega parcours rouge</name>
  </metadata>
  <trk>
    <name><![CDATA[mega parcours rouge_9]]></name>
    <trkseg>
      <trkpt lat="47.59737" lon="6.57694">
        <ele>443.88704413877</ele>
        <time>2000-01-01T00:00:00Z</time>
      </trkpt>
      <trkpt lat="47.59739" lon="6.57672">
        <ele>443.27180345534</ele>
        <time>2000-01-01T00:00:00Z</time>
      </trkpt>
      <trkpt lat="47.59745" lon="6.57683">
        <ele>442.88</ele>
        <time>2000-01-01T00:00:00Z</time>
      </trkpt>
      <trkpt lat="47.59762" lon="6.57714">
        <ele>439.56</ele>
        <time>2000-01-01T00:00:00Z</time>
      </trkpt>
      <trkpt lat="47.59779" lon="6.57745">
        <ele>436.52</ele>
        <time>2000-01-01T00:00:00Z</time>
      </trkpt>
      <trkpt lat="47.59785" lon="6.57755">
        <ele>435.4359904629</ele>
        <time>2000-01-01T00:00:00Z</time>
      </trkpt>
      <trkpt lat="47.59794" lon="6.57778">
        <ele>433.23</ele>
        <time>2000-01-01T00:00:00Z</time>
      </trkpt>
      <trkpt lat="47.59796" lon="6.57784">
        <ele>432.82136573623</ele>
        <time>2000-01-01T00:00:00Z</time>
      </trkpt>
      <trkpt lat="47.59803" lon="6.57806">
        <ele>431.27256415803</ele>
        <time>2000-01-01T00:00:00Z</time>
      </trkpt>
      <trkpt lat="47.59803" lon="6.57815">
        <ele>430.68</ele>
        <time>2000-01-01T00:00:00Z</time>
      </trkpt>
      <trkpt lat="47.59803" lon="6.5784">
        <ele>429.82918555577</ele>
        <time>2000-01-01T00:00:00Z</time>
      </trkpt>
      <trkpt lat="47.59798" lon="6.57853">
        <ele>429.3</ele>
        <time>2000-01-01T00:00:00Z</time>
      </trkpt>
      <trkpt lat="47.59786" lon="6.5788">
        <ele>428.76198408226</ele>
        <time>2000-01-01T00:00:00Z</time>
      </trkpt>
      <trkpt lat="47.59782" lon="6.57898">
        <ele>428.44257432663</ele>
        <time>2000-01-01T00:00:00Z</time>
      </trkpt>
      <trkpt lat="47.5978" lon="6.5792">
        <ele>428.06844449841</ele>
        <time>2000-01-01T00:00:00Z</time>
      </trkpt>
      <trkpt lat="47.5978" lon="6.57927">
        <ele>427.95</ele>
        <time>2000-01-01T00:00:00Z</time>
      </trkpt>
      <trkpt lat="47.5978" lon="6.57967">
        <ele>425.27529169373</ele>
        <time>2000-01-01T00:00:00Z</time>
      </trkpt>
      <trkpt lat="47.59785" lon="6.57996">
        <ele>424.6587788413</ele>
        <time>2000-01-01T00:00:00Z</time>
      </trkpt>
      <trkpt lat="47.59802" lon="6.58039">
        <ele>423.63</ele>
        <time>2000-01-01T00:00:00Z</time>
      </trkpt>
      <trkpt lat="47.59803" lon="6.58041">
        <ele>423.64888933282</ele>
        <time>2000-01-01T00:00:00Z</time>
      </trkpt>
      <trkpt lat="47.59813" lon="6.58079">
        <ele>424.02063093272</ele>
        <time>2000-01-01T00:00:00Z</time>
      </trkpt>
      <trkpt lat="47.5982" lon="6.58116">
        <ele>424.42534747415</ele>
        <time>2000-01-01T00:00:00Z</time>
      </trkpt>
      <trkpt lat="47.59825" lon="6.5815">
        <ele>426.33683890599</ele>
        <time>2000-01-01T00:00:00Z</time>
      </trkpt>
      <trkpt lat="47.59825" lon="6.58154">
        <ele>426.56</ele>
        <time>2000-01-01T00:00:00Z</time>
      </trkpt>
      <trkpt lat="47.59827" lon="6.58173">
        <ele>427.35278025984</ele>
        <time>2000-01-01T00:00:00Z</time>
      </trkpt>
      <trkpt lat="47.59828" lon="6.58194">
        <ele>428.22</ele>
        <time>2000-01-01T00:00:00Z</time>
      </trkpt>
      <trkpt lat="47.59828" lon="6.58208">
        <ele>428.88924972319</ele>
        <time>2000-01-01T00:00:00Z</time>
      </trkpt>
      <trkpt lat="47.5983" lon="6.58234">
        <ele>430.12</ele>
        <time>2000-01-01T00:00:00Z</time>
      </trkpt>
      <trkpt lat="47.59834" lon="6.58271">
        <ele>430.60922637318</ele>
        <time>2000-01-01T00:00:00Z</time>
      </trkpt>
      <trkpt lat="47.59835" lon="6.58273">
        <ele>430.64</ele>
        <time>2000-01-01T00:00:00Z</time>
      </trkpt>
      <trkpt lat="47.59842" lon="6.58309">
        <ele>429.60241649165</ele>
        <time>2000-01-01T00:00:00Z</time>
      </trkpt>
      <trkpt lat="47.59843" lon="6.58311">
        <ele>429.53</ele>
        <time>2000-01-01T00:00:00Z</time>
      </trkpt>
      <trkpt lat="47.59853" lon="6.58342">
        <ele>429.46596008236</ele>
        <time>2000-01-01T00:00:00Z</time>
      </trkpt>
      <trkpt lat="47.59864" lon="6.58385">
        <ele>429.38085443434</ele>
        <time>2000-01-01T00:00:00Z</time>
      </trkpt>
      <trkpt lat="47.59871" lon="6.58423">
        <ele>429.78</ele>
        <time>2000-01-01T00:00:00Z</time>
      </trkpt>
      <trkpt lat="47.59873" lon="6.58432">
        <ele>429.96205088962</ele>
        <time>2000-01-01T00:00:00Z</time>
      </trkpt>
      <trkpt lat="47.59873" lon="6.58463">
        <ele>430.6</ele>
        <time>2000-01-01T00:00:00Z</time>
      </trkpt>
      <trkpt lat="47.59873" lon="6.58484">
        <ele>430.93301076531</ele>
        <time>2000-01-01T00:00:00Z</time>
      </trkpt>
      <trkpt lat="47.59866" lon="6.585">
        <ele>431.24</ele>
        <time>2000-01-01T00:00:00Z</time>
      </trkpt>
      <trkpt lat="47.59855" lon="6.58525">
        <ele>430.34607782901</ele>
        <time>2000-01-01T00:00:00Z</time>
      </trkpt>
      <trkpt lat="47.59844" lon="6.58541">
        <ele>429.65862250163</ele>
        <time>2000-01-01T00:00:00Z</time>
      </trkpt>
      <trkpt lat="47.59834" lon="6.58551">
        <ele>429.12049231868</ele>
        <time>2000-01-01T00:00:00Z</time>
      </trkpt>
      <trkpt lat="47.59829" lon="6.58557">
        <ele>428.83</ele>
        <time>2000-01-01T00:00:00Z</time>
      </trkpt>
      <trkpt lat="47.59823" lon="6.58565">
        <ele>426.99105898378</ele>
        <time>2000-01-01T00:00:00Z</time>
      </trkpt>
      <trkpt lat="47.5982" lon="6.58571">
        <ele>425.83105320895</ele>
        <time>2000-01-01T00:00:00Z</time>
      </trkpt>
      <trkpt lat="47.59809" lon="6.58585">
        <ele>422.44452290261</ele>
        <time>2000-01-01T00:00:00Z</time>
      </trkpt>
      <trkpt lat="47.59786" lon="6.58604">
        <ele>413.84</ele>
        <time>2000-01-01T00:00:00Z</time>
      </trkpt>
      <trkpt lat="47.59785" lon="6.58605">
        <ele>413.44771464311</ele>
        <time>2000-01-01T00:00:00Z</time>
      </trkpt>
      <trkpt lat="47.5978" lon="6.58608">
        <ele>411.39668112677</ele>
        <time>2000-01-01T00:00:00Z</time>
      </trkpt>
      <trkpt lat="47.5977" lon="6.58617">
        <ele>406.94855604782</ele>
        <time>2000-01-01T00:00:00Z</time>
      </trkpt>
      <trkpt lat="47.59762" lon="6.58623">
        <ele>403.57</ele>
        <time>2000-01-01T00:00:00Z</time>
      </trkpt>
      <trkpt lat="47.5975" lon="6.58631">
        <ele>398.80806988931</ele>
        <time>2000-01-01T00:00:00Z</time>
      </trkpt>
      <trkpt lat="47.59737" lon="6.58639">
        <ele>393.85</ele>
        <time>2000-01-01T00:00:00Z</time>
      </trkpt>
      <trkpt lat="47.59712" lon="6.58654">
        <ele>385.18</ele>
        <time>2000-01-01T00:00:00Z</time>
      </trkpt>
      <trkpt lat="47.59687" lon="6.58669">
        <ele>377.39</ele>
        <time>2000-01-01T00:00:00Z</time>
      </trkpt>
      <trkpt lat="47.59681" lon="6.58673">
        <ele>375.41758814921</ele>
        <time>2000-01-01T00:00:00Z</time>
      </trkpt>
      <trkpt lat="47.59661" lon="6.58681">
        <ele>369.40638693812</ele>
        <time>2000-01-01T00:00:00Z</time>
      </trkpt>
      <trkpt lat="47.59648" lon="6.58688">
        <ele>365.44790297218</ele>
        <time>2000-01-01T00:00:00Z</time>
      </trkpt>
      <trkpt lat="47.59636" lon="6.58693">
        <ele>361.82</ele>
        <time>2000-01-01T00:00:00Z</time>
      </trkpt>
      <trkpt lat="47.59633" lon="6.58694">
        <ele>361.15376832357</ele>
        <time>2000-01-01T00:00:00Z</time>
      </trkpt>
      <trkpt lat="47.59609" lon="6.58694">
        <ele>355.53</ele>
        <time>2000-01-01T00:00:00Z</time>
      </trkpt>
      <trkpt lat="47.59605" lon="6.58694">
        <ele>354.93653762909</ele>
        <time>2000-01-01T00:00:00Z</time>
      </trkpt>
      <trkpt lat="47.59596" lon="6.587">
        <ele>353.41661934894</ele>
        <time>2000-01-01T00:00:00Z</time>
      </trkpt>
      <trkpt lat="47.59588" lon="6.58716">
        <ele>351.37</ele>
        <time>2000-01-01T00:00:00Z</time>
      </trkpt>
      <trkpt lat="47.59587" lon="6.58717">
        <ele>351.26082164223</ele>
        <time>2000-01-01T00:00:00Z</time>
      </trkpt>
      <trkpt lat="47.59581" lon="6.58754">
        <ele>349.08</ele>
        <time>2000-01-01T00:00:00Z</time>
      </trkpt>
      <trkpt lat="47.59574" lon="6.58791">
        <ele>349.01300642958</ele>
        <time>2000-01-01T00:00:00Z</time>
      </trkpt>
      <trkpt lat="47.59568" lon="6.58813">
        <ele>348.97152848588</ele>
        <time>2000-01-01T00:00:00Z</time>
      </trkpt>
      <trkpt lat="47.59561" lon="6.58828">
        <ele>348.94</ele>
        <time>2000-01-01T00:00:00Z</time>
      </trkpt>
      <trkpt lat="47.59558" lon="6.58834">
        <ele>349.07979221753</ele>
        <time>2000-01-01T00:00:00Z</time>
      </trkpt>
      <trkpt lat="47.59549" lon="6.58844">
        <ele>349.38376800151</ele>
        <time>2000-01-01T00:00:00Z</time>
      </trkpt>
      <trkpt lat="47.59539" lon="6.58849">
        <ele>349.67</ele>
        <time>2000-01-01T00:00:00Z</time>
      </trkpt>
      <trkpt lat="47.59534" lon="6.58852">
        <ele>349.82652060985</ele>
        <time>2000-01-01T00:00:00Z</time>
      </trkpt>
      <trkpt lat="47.59512" lon="6.58852">
        <ele>350.46</ele>
        <time>2000-01-01T00:00:00Z</time>
      </trkpt>
      <trkpt lat="47.59496" lon="6.58852">
        <ele>351.14985012888</ele>
        <time>2000-01-01T00:00:00Z</time>
      </trkpt>
      <trkpt lat="47.59486" lon="6.58859">
        <ele>351.6</ele>
        <time>2000-01-01T00:00:00Z</time>
      </trkpt>
      <trkpt lat="47.59484" lon="6.5886">
        <ele>351.70705259125</ele>
        <time>2000-01-01T00:00:00Z</time>
      </trkpt>
      <trkpt lat="47.59476" lon="6.58867">
        <ele>352.10601758336</ele>
        <time>2000-01-01T00:00:00Z</time>
      </trkpt>
      <trkpt lat="47.59469" lon="6.58882">
        <ele>352.63437085607</ele>
        <time>2000-01-01T00:00:00Z</time>
      </trkpt>
      <trkpt lat="47.59469" lon="6.58886">
        <ele>352.76</ele>
        <time>2000-01-01T00:00:00Z</time>
      </trkpt>
      <trkpt lat="47.59468" lon="6.58901">
        <ele>353.15696812002</ele>
        <time>2000-01-01T00:00:00Z</time>
      </trkpt>
      <trkpt lat="47.59478" lon="6.5892">
        <ele>353.80691900379</ele>
        <time>2000-01-01T00:00:00Z</time>
      </trkpt>
      <trkpt lat="47.59486" lon="6.58932">
        <ele>354.18772531005</ele>
        <time>2000-01-01T00:00:00Z</time>
      </trkpt>
      <trkpt lat="47.59499" lon="6.58947">
        <ele>354.73</ele>
        <time>2000-01-01T00:00:00Z</time>
      </trkpt>
      <trkpt lat="47.59526" lon="6.58979">
        <ele>355.62624626286</ele>
        <time>2000-01-01T00:00:00Z</time>
      </trkpt>
      <trkpt lat="47.59528" lon="6.58984">
        <ele>355.72785587131</ele>
        <time>2000-01-01T00:00:00Z</time>
      </trkpt>
      <trkpt lat="47.59534" lon="6.5899">
        <ele>355.91542336975</ele>
        <time>2000-01-01T00:00:00Z</time>
      </trkpt>
      <trkpt lat="47.59538" lon="6.59">
        <ele>356.13</ele>
        <time>2000-01-01T00:00:00Z</time>
      </trkpt>
      <trkpt lat="47.59539" lon="6.59002">
        <ele>356.25422989634</ele>
        <time>2000-01-01T00:00:00Z</time>
      </trkpt>
      <trkpt lat="47.5954" lon="6.59012">
        <ele>356.94081893926</ele>
        <time>2000-01-01T00:00:00Z</time>
      </trkpt>
      <trkpt lat="47.59534" lon="6.59017">
        <ele>357.63397070168</ele>
        <time>2000-01-01T00:00:00Z</time>
      </trkpt>
      <trkpt lat="47.59528" lon="6.59019">
        <ele>358.25332066201</ele>
        <time>2000-01-01T00:00:00Z</time>
      </trkpt>
      <trkpt lat="47.59522" lon="6.59019">
        <ele>358.85</ele>
        <time>2000-01-01T00:00:00Z</time>
      </trkpt>
      <trkpt lat="47.59498" lon="6.59019">
        <ele>362.95055727501</ele>
        <time>2000-01-01T00:00:00Z</time>
      </trkpt>
      <trkpt lat="47.59495" lon="6.59021">
        <ele>363.45</ele>
        <time>2000-01-01T00:00:00Z</time>
      </trkpt>
      <trkpt lat="47.59487" lon="6.59026">
        <ele>365.04621554946</ele>
        <time>2000-01-01T00:00:00Z</time>
      </trkpt>
      <trkpt lat="47.59482" lon="6.59035">
        <ele>366.4350585501</ele>
        <time>2000-01-01T00:00:00Z</time>
      </trkpt>
      <trkpt lat="47.59481" lon="6.5905">
        <ele>368.22</ele>
        <time>2000-01-01T00:00:00Z</time>
      </trkpt>
      <trkpt lat="47.59481" lon="6.59058">
        <ele>369.03119440346</ele>
        <time>2000-01-01T00:00:00Z</time>
      </trkpt>
      <trkpt lat="47.59488" lon="6.5908">
        <ele>371.47902879587</ele>
        <time>2000-01-01T00:00:00Z</time>
      </trkpt>
      <trkpt lat="47.59488" lon="6.59088">
        <ele>372.25</ele>
        <time>2000-01-01T00:00:00Z</time>
      </trkpt>
      <trkpt lat="47.59488" lon="6.59104">
        <ele>374.48153512453</ele>
        <time>2000-01-01T00:00:00Z</time>
      </trkpt>
      <trkpt lat="47.59479" lon="6.59113">
        <ele>376.68010039867</ele>
        <time>2000-01-01T00:00:00Z</time>
      </trkpt>
      <trkpt lat="47.59474" lon="6.59115">
        <ele>377.72</ele>
        <time>2000-01-01T00:00:00Z</time>
      </trkpt>
      <trkpt lat="47.59465" lon="6.59118">
        <ele>379.46286185918</ele>
        <time>2000-01-01T00:00:00Z</time>
      </trkpt>
      <trkpt lat="47.59448" lon="6.59127">
        <ele>382.8</ele>
        <time>2000-01-01T00:00:00Z</time>
      </trkpt>
      <trkpt lat="47.59445" lon="6.59129">
        <ele>383.03170338854</ele>
        <time>2000-01-01T00:00:00Z</time>
      </trkpt>
      <trkpt lat="47.59436" lon="6.5913">
        <ele>383.61427667168</ele>
        <time>2000-01-01T00:00:00Z</time>
      </trkpt>
      <trkpt lat="47.59433" lon="6.59132">
        <ele>383.82659544854</ele>
        <time>2000-01-01T00:00:00Z</time>
      </trkpt>
      <trkpt lat="47.5943" lon="6.59144">
        <ele>384.38370091935</ele>
        <time>2000-01-01T00:00:00Z</time>
      </trkpt>
      <trkpt lat="47.59407" lon="6.59131">
        <ele>385.97253271595</ele>
        <time>2000-01-01T00:00:00Z</time>
      </trkpt>
      <trkpt lat="47.59376" lon="6.59119">
        <ele>388.03</ele>
        <time>2000-01-01T00:00:00Z</time>
      </trkpt>
      <trkpt lat="47.5937" lon="6.59116">
        <ele>389.45117994453</ele>
        <time>2000-01-01T00:00:00Z</time>
      </trkpt>
      <trkpt lat="47.5935" lon="6.5911">
        <ele>393.95</ele>
        <time>2000-01-01T00:00:00Z</time>
      </trkpt>
      <trkpt lat="47.59329" lon="6.59103">
        <ele>396.66815739153</ele>
        <time>2000-01-01T00:00:00Z</time>
      </trkpt>
      <trkpt lat="47.59324" lon="6.59099">
        <ele>397.38</ele>
        <time>2000-01-01T00:00:00Z</time>
      </trkpt>
      <trkpt lat="47.593" lon="6.59082">
        <ele>398.05</ele>
        <time>2000-01-01T00:00:00Z</time>
      </trkpt>
      <trkpt lat="47.59283" lon="6.5907">
        <ele>397.50236612841</ele>
        <time>2000-01-01T00:00:00Z</time>
      </trkpt>
      <trkpt lat="47.59275" lon="6.59064">
        <ele>397.25</ele>
        <time>2000-01-01T00:00:00Z</time>
      </trkpt>
      <trkpt lat="47.59251" lon="6.59046">
        <ele>397.1</ele>
        <time>2000-01-01T00:00:00Z</time>
      </trkpt>
      <trkpt lat="47.59227" lon="6.59029">
        <ele>398.41</ele>
        <time>2000-01-01T00:00:00Z</time>
      </trkpt>
      <trkpt lat="47.59203" lon="6.59011">
        <ele>400.72</ele>
        <time>2000-01-01T00:00:00Z</time>
      </trkpt>
      <trkpt lat="47.59179" lon="6.58993">
        <ele>403.61</ele>
        <time>2000-01-01T00:00:00Z</time>
      </trkpt>
      <trkpt lat="47.59155" lon="6.58975">
        <ele>406.65</ele>
        <time>2000-01-01T00:00:00Z</time>
      </trkpt>
      <trkpt lat="47.5914" lon="6.58964">
        <ele>408.740073941</ele>
        <time>2000-01-01T00:00:00Z</time>
      </trkpt>
      <trkpt lat="47.5913" lon="6.58958">
        <ele>410.11</ele>
        <time>2000-01-01T00:00:00Z</time>
      </trkpt>
      <trkpt lat="47.59056" lon="6.58911">
        <ele>413.8</ele>
        <time>2000-01-01T00:00:00Z</time>
      </trkpt>
      <trkpt lat="47.59031" lon="6.58895">
        <ele>418.98</ele>
        <time>2000-01-01T00:00:00Z</time>
      </trkpt>
      <trkpt lat="47.59006" lon="6.58879">
        <ele>425.92</ele>
        <time>2000-01-01T00:00:00Z</time>
      </trkpt>
      <trkpt lat="47.58998" lon="6.58874">
        <ele>428.0066513942</ele>
        <time>2000-01-01T00:00:00Z</time>
      </trkpt>
      <trkpt lat="47.58984" lon="6.58872">
        <ele>431.38124380649</ele>
        <time>2000-01-01T00:00:00Z</time>
      </trkpt>
      <trkpt lat="47.58982" lon="6.58877">
        <ele>432.4</ele>
        <time>2000-01-01T00:00:00Z</time>
      </trkpt>
      <trkpt lat="47.58979" lon="6.58884">
        <ele>432.84757634432</ele>
        <time>2000-01-01T00:00:00Z</time>
      </trkpt>
      <trkpt lat="47.5898" lon="6.58907">
        <ele>434.16845320705</ele>
        <time>2000-01-01T00:00:00Z</time>
      </trkpt>
      <trkpt lat="47.58984" lon="6.58928">
        <ele>435.41904993676</ele>
        <time>2000-01-01T00:00:00Z</time>
      </trkpt>
      <trkpt lat="47.58984" lon="6.58955">
        <ele>436.99</ele>
        <time>2000-01-01T00:00:00Z</time>
      </trkpt>
      <trkpt lat="47.58984" lon="6.58967">
        <ele>438.28069116998</ele>
        <time>2000-01-01T00:00:00Z</time>
      </trkpt>
      <trkpt lat="47.58976" lon="6.58993">
        <ele>441.45</ele>
        <time>2000-01-01T00:00:00Z</time>
      </trkpt>
      <trkpt lat="47.58974" lon="6.59001">
        <ele>442.13148581363</ele>
        <time>2000-01-01T00:00:00Z</time>
      </trkpt>
      <trkpt lat="47.58956" lon="6.59018">
        <ele>444.61</ele>
        <time>2000-01-01T00:00:00Z</time>
      </trkpt>
      <trkpt lat="47.58955" lon="6.59019">
        <ele>444.69484347556</ele>
        <time>2000-01-01T00:00:00Z</time>
      </trkpt>
      <trkpt lat="47.5893" lon="6.59026">
        <ele>446.29</ele>
        <time>2000-01-01T00:00:00Z</time>
      </trkpt>
      <trkpt lat="47.58928" lon="6.59026">
        <ele>446.36845994407</ele>
        <time>2000-01-01T00:00:00Z</time>
      </trkpt>
      <trkpt lat="47.58904" lon="6.59015">
        <ele>447.49</ele>
        <time>2000-01-01T00:00:00Z</time>
      </trkpt>
      <trkpt lat="47.58892" lon="6.5901">
        <ele>447.54254702807</ele>
        <time>2000-01-01T00:00:00Z</time>
      </trkpt>
      <trkpt lat="47.58852" lon="6.58993">
        <ele>447.72</ele>
        <time>2000-01-01T00:00:00Z</time>
      </trkpt>
      <trkpt lat="47.58849" lon="6.58992">
        <ele>447.61092189277</ele>
        <time>2000-01-01T00:00:00Z</time>
      </trkpt>
      <trkpt lat="47.58827" lon="6.58978">
        <ele>446.74</ele>
        <time>2000-01-01T00:00:00Z</time>
      </trkpt>
      <trkpt lat="47.58818" lon="6.58973">
        <ele>446.58983622588</ele>
        <time>2000-01-01T00:00:00Z</time>
      </trkpt>
      <trkpt lat="47.5879" lon="6.58962">
        <ele>446.13401705169</ele>
        <time>2000-01-01T00:00:00Z</time>
      </trkpt>
      <trkpt lat="47.58777" lon="6.58954">
        <ele>445.91252529117</ele>
        <time>2000-01-01T00:00:00Z</time>
      </trkpt>
      <trkpt lat="47.58776" lon="6.58956">
        <ele>445.89</ele>
        <time>2000-01-01T00:00:00Z</time>
      </trkpt>
      <trkpt lat="47.58745" lon="6.59021">
        <ele>445.57</ele>
        <time>2000-01-01T00:00:00Z</time>
      </trkpt>
      <trkpt lat="47.58714" lon="6.59087">
        <ele>445.59</ele>
        <time>2000-01-01T00:00:00Z</time>
      </trkpt>
      <trkpt lat="47.58698" lon="6.59119">
        <ele>446.14</ele>
        <time>2000-01-01T00:00:00Z</time>
      </trkpt>
      <trkpt lat="47.58683" lon="6.59152">
        <ele>446.31</ele>
        <time>2000-01-01T00:00:00Z</time>
      </trkpt>
      <trkpt lat="47.58667" lon="6.59185">
        <ele>445.95</ele>
        <time>2000-01-01T00:00:00Z</time>
      </trkpt>
      <trkpt lat="47.58652" lon="6.59218">
        <ele>445.47</ele>
        <time>2000-01-01T00:00:00Z</time>
      </trkpt>
      <trkpt lat="47.58651" lon="6.59219">
        <ele>445.46053639332</ele>
        <time>2000-01-01T00:00:00Z</time>
      </trkpt>
      <trkpt lat="47.5869" lon="6.5924">
        <ele>445.13022874894</ele>
        <time>2000-01-01T00:00:00Z</time>
      </trkpt>
      <trkpt lat="47.587" lon="6.59247">
        <ele>445.04</ele>
        <time>2000-01-01T00:00:00Z</time>
      </trkpt>
      <trkpt lat="47.58701" lon="6.59248">
        <ele>445.03456265629</ele>
        <time>2000-01-01T00:00:00Z</time>
      </trkpt>
      <trkpt lat="47.58712" lon="6.59259">
        <ele>444.95595907119</ele>
        <time>2000-01-01T00:00:00Z</time>
      </trkpt>
      <trkpt lat="47.58719" lon="6.59261">
        <ele>444.9137264961</ele>
        <time>2000-01-01T00:00:00Z</time>
      </trkpt>
      <trkpt lat="47.58737" lon="6.59261">
        <ele>444.80709037787</ele>
        <time>2000-01-01T00:00:00Z</time>
      </trkpt>
      <trkpt lat="47.58744" lon="6.59258">
        <ele>444.76392306141</ele>
        <time>2000-01-01T00:00:00Z</time>
      </trkpt>
      <trkpt lat="47.58751" lon="6.59257">
        <ele>444.72</ele>
        <time>2000-01-01T00:00:00Z</time>
      </trkpt>
      <trkpt lat="47.58773" lon="6.59252">
        <ele>443.78080438145</ele>
        <time>2000-01-01T00:00:00Z</time>
      </trkpt>
      <trkpt lat="47.58778" lon="6.5925">
        <ele>443.56</ele>
        <time>2000-01-01T00:00:00Z</time>
      </trkpt>
      <trkpt lat="47.588" lon="6.59241">
        <ele>441.68941319411</ele>
        <time>2000-01-01T00:00:00Z</time>
      </trkpt>
      <trkpt lat="47.58804" lon="6.5924">
        <ele>441.35</ele>
        <time>2000-01-01T00:00:00Z</time>
      </trkpt>
      <trkpt lat="47.58841" lon="6.59233">
        <ele>439.15274036127</ele>
        <time>2000-01-01T00:00:00Z</time>
      </trkpt>
      <trkpt lat="47.58858" lon="6.59233">
        <ele>438.16</ele>
        <time>2000-01-01T00:00:00Z</time>
      </trkpt>
      <trkpt lat="47.58873" lon="6.59233">
        <ele>435.1003372359</ele>
        <time>2000-01-01T00:00:00Z</time>
      </trkpt>
      <trkpt lat="47.58882" lon="6.59239">
        <ele>433.11270561855</ele>
        <time>2000-01-01T00:00:00Z</time>
      </trkpt>
      <trkpt lat="47.58883" lon="6.59241">
        <ele>432.72</ele>
        <time>2000-01-01T00:00:00Z</time>
      </trkpt>
      <trkpt lat="47.58889" lon="6.5925">
        <ele>431.2139768986</ele>
        <time>2000-01-01T00:00:00Z</time>
      </trkpt>
      <trkpt lat="47.58894" lon="6.59263">
        <ele>429.37154827764</ele>
        <time>2000-01-01T00:00:00Z</time>
      </trkpt>
      <trkpt lat="47.58894" lon="6.59276">
        <ele>427.79</ele>
        <time>2000-01-01T00:00:00Z</time>
      </trkpt>
      <trkpt lat="47.58894" lon="6.5929">
        <ele>427.16792641856</ele>
        <time>2000-01-01T00:00:00Z</time>
      </trkpt>
      <trkpt lat="47.58888" lon="6.59314">
        <ele>426.04296122004</ele>
        <time>2000-01-01T00:00:00Z</time>
      </trkpt>
      <trkpt lat="47.58875" lon="6.59346">
        <ele>424.40108155289</ele>
        <time>2000-01-01T00:00:00Z</time>
      </trkpt>
      <trkpt lat="47.58874" lon="6.59349">
        <ele>424.27</ele>
        <time>2000-01-01T00:00:00Z</time>
      </trkpt>
      <trkpt lat="47.58871" lon="6.59362">
        <ele>423.61066316</ele>
        <time>2000-01-01T00:00:00Z</time>
      </trkpt>
      <trkpt lat="47.58867" lon="6.59394">
        <ele>422.08680217864</ele>
        <time>2000-01-01T00:00:00Z</time>
      </trkpt>
      <trkpt lat="47.58871" lon="6.59403">
        <ele>421.58212192509</ele>
        <time>2000-01-01T00:00:00Z</time>
      </trkpt>
      <trkpt lat="47.58875" lon="6.59405">
        <ele>421.28905885622</ele>
        <time>2000-01-01T00:00:00Z</time>
      </trkpt>
      <trkpt lat="47.58882" lon="6.59405">
        <ele>420.80308696324</ele>
        <time>2000-01-01T00:00:00Z</time>
      </trkpt>
      <trkpt lat="47.58885" lon="6.59401">
        <ele>420.52</ele>
        <time>2000-01-01T00:00:00Z</time>
      </trkpt>
      <trkpt lat="47.58899" lon="6.59381">
        <ele>417.00818241663</ele>
        <time>2000-01-01T00:00:00Z</time>
      </trkpt>
      <trkpt lat="47.58904" lon="6.59372">
        <ele>415.63</ele>
        <time>2000-01-01T00:00:00Z</time>
      </trkpt>
      <trkpt lat="47.58916" lon="6.5935">
        <ele>412.48715810626</ele>
        <time>2000-01-01T00:00:00Z</time>
      </trkpt>
      <trkpt lat="47.58922" lon="6.59343">
        <ele>411.24</ele>
        <time>2000-01-01T00:00:00Z</time>
      </trkpt>
      <trkpt lat="47.5893" lon="6.59332">
        <ele>409.59571234525</ele>
        <time>2000-01-01T00:00:00Z</time>
      </trkpt>
      <trkpt lat="47.58943" lon="6.59318">
        <ele>407.15</ele>
        <time>2000-01-01T00:00:00Z</time>
      </trkpt>
      <trkpt lat="47.58965" lon="6.59295">
        <ele>404.26</ele>
        <time>2000-01-01T00:00:00Z</time>
      </trkpt>
      <trkpt lat="47.58968" lon="6.59292">
        <ele>403.98067025272</ele>
        <time>2000-01-01T00:00:00Z</time>
      </trkpt>
      <trkpt lat="47.58987" lon="6.59277">
        <ele>402.2352193238</ele>
        <time>2000-01-01T00:00:00Z</time>
      </trkpt>
      <trkpt lat="47.58989" lon="6.59276">
        <ele>402.07</ele>
        <time>2000-01-01T00:00:00Z</time>
      </trkpt>
      <trkpt lat="47.58994" lon="6.59275">
        <ele>401.760842806</ele>
        <time>2000-01-01T00:00:00Z</time>
      </trkpt>
      <trkpt lat="47.59016" lon="6.59276">
        <ele>400.43</ele>
        <time>2000-01-01T00:00:00Z</time>
      </trkpt>
      <trkpt lat="47.5902" lon="6.59276">
        <ele>400.22847642218</ele>
        <time>2000-01-01T00:00:00Z</time>
      </trkpt>
      <trkpt lat="47.59038" lon="6.59286">
        <ele>399.28188615915</ele>
        <time>2000-01-01T00:00:00Z</time>
      </trkpt>
      <trkpt lat="47.59041" lon="6.59289">
        <ele>399.1</ele>
        <time>2000-01-01T00:00:00Z</time>
      </trkpt>
      <trkpt lat="47.59056" lon="6.59301">
        <ele>398.13323991024</ele>
        <time>2000-01-01T00:00:00Z</time>
      </trkpt>
      <trkpt lat="47.59064" lon="6.5931">
        <ele>397.56</ele>
        <time>2000-01-01T00:00:00Z</time>
      </trkpt>
      <trkpt lat="47.59075" lon="6.59323">
        <ele>396.76905133008</ele>
        <time>2000-01-01T00:00:00Z</time>
      </trkpt>
      <trkpt lat="47.59084" lon="6.59337">
        <ele>396.04</ele>
        <time>2000-01-01T00:00:00Z</time>
      </trkpt>
      <trkpt lat="47.59103" lon="6.59366">
        <ele>393.82</ele>
        <time>2000-01-01T00:00:00Z</time>
      </trkpt>
      <trkpt lat="47.59111" lon="6.59378">
        <ele>392.6257544584</ele>
        <time>2000-01-01T00:00:00Z</time>
      </trkpt>
      <trkpt lat="47.59121" lon="6.59389">
        <ele>391.35792785636</ele>
        <time>2000-01-01T00:00:00Z</time>
      </trkpt>
      <trkpt lat="47.59123" lon="6.59392">
        <ele>391.07</ele>
        <time>2000-01-01T00:00:00Z</time>
      </trkpt>
      <trkpt lat="47.59126" lon="6.59397">
        <ele>390.4027040895</ele>
        <time>2000-01-01T00:00:00Z</time>
      </trkpt>
      <trkpt lat="47.59126" lon="6.59403">
        <ele>389.80639229497</ele>
        <time>2000-01-01T00:00:00Z</time>
      </trkpt>
      <trkpt lat="47.59129" lon="6.5943">
        <ele>387.09</ele>
        <time>2000-01-01T00:00:00Z</time>
      </trkpt>
      <trkpt lat="47.59138" lon="6.59509">
        <ele>381.26</ele>
        <time>2000-01-01T00:00:00Z</time>
      </trkpt>
      <trkpt lat="47.59138" lon="6.59514">
        <ele>380.71517798225</ele>
        <time>2000-01-01T00:00:00Z</time>
      </trkpt>
      <trkpt lat="47.59151" lon="6.59543">
        <ele>376.89</ele>
        <time>2000-01-01T00:00:00Z</time>
      </trkpt>
      <trkpt lat="47.59163" lon="6.5957">
        <ele>374.32466069189</ele>
        <time>2000-01-01T00:00:00Z</time>
      </trkpt>
      <trkpt lat="47.59165" lon="6.59577">
        <ele>373.69</ele>
        <time>2000-01-01T00:00:00Z</time>
      </trkpt>
      <trkpt lat="47.5917" lon="6.59591">
        <ele>372.6345407119</ele>
        <time>2000-01-01T00:00:00Z</time>
      </trkpt>
      <trkpt lat="47.5918" lon="6.59611">
        <ele>370.96</ele>
        <time>2000-01-01T00:00:00Z</time>
      </trkpt>
      <trkpt lat="47.59206" lon="6.59663">
        <ele>369.38399907377</ele>
        <time>2000-01-01T00:00:00Z</time>
      </trkpt>
      <trkpt lat="47.5921" lon="6.59676">
        <ele>369.03789304367</ele>
        <time>2000-01-01T00:00:00Z</time>
      </trkpt>
      <trkpt lat="47.59225" lon="6.5971">
        <ele>366.34</ele>
        <time>2000-01-01T00:00:00Z</time>
      </trkpt>
      <trkpt lat="47.59236" lon="6.59734">
        <ele>364.39433208843</ele>
        <time>2000-01-01T00:00:00Z</time>
      </trkpt>
      <trkpt lat="47.59239" lon="6.59744">
        <ele>363.64</ele>
        <time>2000-01-01T00:00:00Z</time>
      </trkpt>
      <trkpt lat="47.59241" lon="6.59751">
        <ele>363.33684192779</ele>
        <time>2000-01-01T00:00:00Z</time>
      </trkpt>
      <trkpt lat="47.59242" lon="6.59764">
        <ele>362.79774896923</ele>
        <time>2000-01-01T00:00:00Z</time>
      </trkpt>
      <trkpt lat="47.59243" lon="6.59784">
        <ele>361.99</ele>
        <time>2000-01-01T00:00:00Z</time>
      </trkpt>
      <trkpt lat="47.59243" lon="6.59793">
        <ele>361.73560678755</ele>
        <time>2000-01-01T00:00:00Z</time>
      </trkpt>
      <trkpt lat="47.59225" lon="6.59807">
        <ele>360.91</ele>
        <time>2000-01-01T00:00:00Z</time>
      </trkpt>
      <trkpt lat="47.59216" lon="6.59813">
        <ele>361.01591949651</ele>
        <time>2000-01-01T00:00:00Z</time>
      </trkpt>
      <trkpt lat="47.59205" lon="6.59818">
        <ele>361.14371887376</ele>
        <time>2000-01-01T00:00:00Z</time>
      </trkpt>
      <trkpt lat="47.59199" lon="6.5982">
        <ele>361.21</ele>
        <time>2000-01-01T00:00:00Z</time>
      </trkpt>
      <trkpt lat="47.59184" lon="6.59824">
        <ele>362.63159354088</ele>
        <time>2000-01-01T00:00:00Z</time>
      </trkpt>
      <trkpt lat="47.59173" lon="6.59829">
        <ele>363.7</ele>
        <time>2000-01-01T00:00:00Z</time>
      </trkpt>
      <trkpt lat="47.59147" lon="6.5984">
        <ele>367.35</ele>
        <time>2000-01-01T00:00:00Z</time>
      </trkpt>
      <trkpt lat="47.59136" lon="6.59844">
        <ele>368.84712452092</ele>
        <time>2000-01-01T00:00:00Z</time>
      </trkpt>
      <trkpt lat="47.59121" lon="6.59848">
        <ele>370.94</ele>
        <time>2000-01-01T00:00:00Z</time>
      </trkpt>
      <trkpt lat="47.59096" lon="6.59855">
        <ele>374.04242304575</ele>
        <time>2000-01-01T00:00:00Z</time>
      </trkpt>
      <trkpt lat="47.59094" lon="6.59857">
        <ele>374.3</ele>
        <time>2000-01-01T00:00:00Z</time>
      </trkpt>
      <trkpt lat="47.59091" lon="6.5986">
        <ele>374.61967665909</ele>
        <time>2000-01-01T00:00:00Z</time>
      </trkpt>
      <trkpt lat="47.59089" lon="6.5986">
        <ele>374.78111189363</ele>
        <time>2000-01-01T00:00:00Z</time>
      </trkpt>
      <trkpt lat="47.5908" lon="6.59888">
        <ele>376.48</ele>
        <time>2000-01-01T00:00:00Z</time>
      </trkpt>
      <trkpt lat="47.59057" lon="6.59962">
        <ele>378.26317976961</ele>
        <time>2000-01-01T00:00:00Z</time>
      </trkpt>
      <trkpt lat="47.59056" lon="6.59975">
        <ele>378.84476701356</ele>
        <time>2000-01-01T00:00:00Z</time>
      </trkpt>
      <trkpt lat="47.59056" lon="6.60001">
        <ele>379.99</ele>
        <time>2000-01-01T00:00:00Z</time>
      </trkpt>
      <trkpt lat="47.59056" lon="6.60024">
        <ele>380.34973323858</ele>
        <time>2000-01-01T00:00:00Z</time>
      </trkpt>
      <trkpt lat="47.5906" lon="6.6004">
        <ele>380.61</ele>
        <time>2000-01-01T00:00:00Z</time>
      </trkpt>
      <trkpt lat="47.59064" lon="6.6006">
        <ele>380.38350511157</ele>
        <time>2000-01-01T00:00:00Z</time>
      </trkpt>
      <trkpt lat="47.59072" lon="6.60075">
        <ele>380.18</ele>
        <time>2000-01-01T00:00:00Z</time>
      </trkpt>
      <trkpt lat="47.59079" lon="6.60088">
        <ele>380.04570406029</ele>
        <time>2000-01-01T00:00:00Z</time>
      </trkpt>
      <trkpt lat="47.59084" lon="6.60094">
        <ele>379.96949133923</ele>
        <time>2000-01-01T00:00:00Z</time>
      </trkpt>
      <trkpt lat="47.5909" lon="6.60099">
        <ele>379.88794238989</ele>
        <time>2000-01-01T00:00:00Z</time>
      </trkpt>
      <trkpt lat="47.59092" lon="6.60099">
        <ele>379.86</ele>
        <time>2000-01-01T00:00:00Z</time>
      </trkpt>
      <trkpt lat="47.59114" lon="6.60103">
        <ele>380.05769305481</ele>
        <time>2000-01-01T00:00:00Z</time>
      </trkpt>
      <trkpt lat="47.59116" lon="6.60105">
        <ele>380.07957647346</ele>
        <time>2000-01-01T00:00:00Z</time>
      </trkpt>
      <trkpt lat="47.59118" lon="6.60149">
        <ele>380.35</ele>
        <time>2000-01-01T00:00:00Z</time>
      </trkpt>
      <trkpt lat="47.5912" lon="6.60189">
        <ele>380.9</ele>
        <time>2000-01-01T00:00:00Z</time>
      </trkpt>
      <trkpt lat="47.59121" lon="6.60211">
        <ele>380.46028337566</ele>
        <time>2000-01-01T00:00:00Z</time>
      </trkpt>
      <trkpt lat="47.59124" lon="6.60229">
        <ele>380.1</ele>
        <time>2000-01-01T00:00:00Z</time>
      </trkpt>
      <trkpt lat="47.59125" lon="6.60234">
        <ele>379.69452718892</ele>
        <time>2000-01-01T00:00:00Z</time>
      </trkpt>
      <trkpt lat="47.5913" lon="6.60251">
        <ele>378.37925879731</ele>
        <time>2000-01-01T00:00:00Z</time>
      </trkpt>
      <trkpt lat="47.59131" lon="6.60254">
        <ele>378.14193629732</ele>
        <time>2000-01-01T00:00:00Z</time>
      </trkpt>
      <trkpt lat="47.59139" lon="6.60251">
        <ele>377.26</ele>
        <time>2000-01-01T00:00:00Z</time>
      </trkpt>
      <trkpt lat="47.59166" lon="6.60243">
        <ele>373.57</ele>
        <time>2000-01-01T00:00:00Z</time>
      </trkpt>
      <trkpt lat="47.59192" lon="6.60235">
        <ele>369.32</ele>
        <time>2000-01-01T00:00:00Z</time>
      </trkpt>
      <trkpt lat="47.59205" lon="6.60231">
        <ele>366.89474938395</ele>
        <time>2000-01-01T00:00:00Z</time>
      </trkpt>
      <trkpt lat="47.59218" lon="6.60226">
        <ele>364.36</ele>
        <time>2000-01-01T00:00:00Z</time>
      </trkpt>
      <trkpt lat="47.59244" lon="6.60215">
        <ele>359.36</ele>
        <time>2000-01-01T00:00:00Z</time>
      </trkpt>
      <trkpt lat="47.59246" lon="6.60214">
        <ele>359.0414323043</ele>
        <time>2000-01-01T00:00:00Z</time>
      </trkpt>
      <trkpt lat="47.59269" lon="6.6021">
        <ele>354.85709921194</ele>
        <time>2000-01-01T00:00:00Z</time>
      </trkpt>
      <trkpt lat="47.59271" lon="6.6021">
        <ele>354.48</ele>
        <time>2000-01-01T00:00:00Z</time>
      </trkpt>
      <trkpt lat="47.59291" lon="6.6021">
        <ele>351.066268451</ele>
        <time>2000-01-01T00:00:00Z</time>
      </trkpt>
      <trkpt lat="47.59298" lon="6.60209">
        <ele>349.85</ele>
        <time>2000-01-01T00:00:00Z</time>
      </trkpt>
      <trkpt lat="47.59302" lon="6.60208">
        <ele>349.18115398866</ele>
        <time>2000-01-01T00:00:00Z</time>
      </trkpt>
      <trkpt lat="47.59325" lon="6.60207">
        <ele>345.32</ele>
        <time>2000-01-01T00:00:00Z</time>
      </trkpt>
      <trkpt lat="47.59344" lon="6.60206">
        <ele>342.31579937166</ele>
        <time>2000-01-01T00:00:00Z</time>
      </trkpt>
      <trkpt lat="47.59352" lon="6.60205">
        <ele>341.05</ele>
        <time>2000-01-01T00:00:00Z</time>
      </trkpt>
      <trkpt lat="47.59374" lon="6.60202">
        <ele>337.66821458286</ele>
        <time>2000-01-01T00:00:00Z</time>
      </trkpt>
      <trkpt lat="47.59379" lon="6.60202">
        <ele>336.92</ele>
        <time>2000-01-01T00:00:00Z</time>
      </trkpt>
      <trkpt lat="47.59389" lon="6.60202">
        <ele>335.66258487977</ele>
        <time>2000-01-01T00:00:00Z</time>
      </trkpt>
      <trkpt lat="47.59398" lon="6.602">
        <ele>334.53040216889</ele>
        <time>2000-01-01T00:00:00Z</time>
      </trkpt>
      <trkpt lat="47.59405" lon="6.60196">
        <ele>333.56</ele>
        <time>2000-01-01T00:00:00Z</time>
      </trkpt>
      <trkpt lat="47.5941" lon="6.60194">
        <ele>333.17641706828</ele>
        <time>2000-01-01T00:00:00Z</time>
      </trkpt>
      <trkpt lat="47.5942" lon="6.60189">
        <ele>332.34412675326</ele>
        <time>2000-01-01T00:00:00Z</time>
      </trkpt>
      <trkpt lat="47.5943" lon="6.60181">
        <ele>331.43</ele>
        <time>2000-01-01T00:00:00Z</time>
      </trkpt>
      <trkpt lat="47.59433" lon="6.60179">
        <ele>331.34631524828</ele>
        <time>2000-01-01T00:00:00Z</time>
      </trkpt>
      <trkpt lat="47.59438" lon="6.60178">
        <ele>331.20807699137</ele>
        <time>2000-01-01T00:00:00Z</time>
      </trkpt>
      <trkpt lat="47.5944" lon="6.60176">
        <ele>331.14198141436</ele>
        <time>2000-01-01T00:00:00Z</time>
      </trkpt>
      <trkpt lat="47.59457" lon="6.60176">
        <ele>330.69</ele>
        <time>2000-01-01T00:00:00Z</time>
      </trkpt>
      <trkpt lat="47.59464" lon="6.60176">
        <ele>330.79002550446</ele>
        <time>2000-01-01T00:00:00Z</time>
      </trkpt>
      <trkpt lat="47.59468" lon="6.60179">
        <ele>330.8497753258</ele>
        <time>2000-01-01T00:00:00Z</time>
      </trkpt>
      <trkpt lat="47.59468" lon="6.60183">
        <ele>330.88573147605</ele>
        <time>2000-01-01T00:00:00Z</time>
      </trkpt>
      <trkpt lat="47.59457" lon="6.60191">
        <ele>331.05</ele>
        <time>2000-01-01T00:00:00Z</time>
      </trkpt>
      <trkpt lat="47.59433" lon="6.60209">
        <ele>332.3</ele>
        <time>2000-01-01T00:00:00Z</time>
      </trkpt>
      <trkpt lat="47.59409" lon="6.60227">
        <ele>335.16</ele>
        <time>2000-01-01T00:00:00Z</time>
      </trkpt>
      <trkpt lat="47.59393" lon="6.60238">
        <ele>337.90010480438</ele>
        <time>2000-01-01T00:00:00Z</time>
      </trkpt>
      <trkpt lat="47.59387" lon="6.60246">
        <ele>339.17581502059</ele>
        <time>2000-01-01T00:00:00Z</time>
      </trkpt>
      <trkpt lat="47.59386" lon="6.60247">
        <ele>339.43</ele>
        <time>2000-01-01T00:00:00Z</time>
      </trkpt>
      <trkpt lat="47.59377" lon="6.60257">
        <ele>341.52980022479</ele>
        <time>2000-01-01T00:00:00Z</time>
      </trkpt>
      <trkpt lat="47.59363" lon="6.60269">
        <ele>344.66</ele>
        <time>2000-01-01T00:00:00Z</time>
      </trkpt>
      <trkpt lat="47.5934" lon="6.60289">
        <ele>350.19</ele>
        <time>2000-01-01T00:00:00Z</time>
      </trkpt>
      <trkpt lat="47.59327" lon="6.603">
        <ele>352.33491108254</ele>
        <time>2000-01-01T00:00:00Z</time>
      </trkpt>
      <trkpt lat="47.59317" lon="6.60312">
        <ele>354.15</ele>
        <time>2000-01-01T00:00:00Z</time>
      </trkpt>
      <trkpt lat="47.59307" lon="6.60324">
        <ele>355.58837301773</ele>
        <time>2000-01-01T00:00:00Z</time>
      </trkpt>
      <trkpt lat="47.59295" lon="6.60334">
        <ele>357.06</ele>
        <time>2000-01-01T00:00:00Z</time>
      </trkpt>
      <trkpt lat="47.59274" lon="6.60353">
        <ele>359.31911539165</ele>
        <time>2000-01-01T00:00:00Z</time>
      </trkpt>
      <trkpt lat="47.59272" lon="6.60354">
        <ele>359.53</ele>
        <time>2000-01-01T00:00:00Z</time>
      </trkpt>
      <trkpt lat="47.5925" lon="6.60365">
        <ele>361.58432332994</ele>
        <time>2000-01-01T00:00:00Z</time>
      </trkpt>
      <trkpt lat="47.59246" lon="6.60368">
        <ele>361.94</ele>
        <time>2000-01-01T00:00:00Z</time>
      </trkpt>
      <trkpt lat="47.59234" lon="6.60377">
        <ele>363.3650128739</ele>
        <time>2000-01-01T00:00:00Z</time>
      </trkpt>
      <trkpt lat="47.59221" lon="6.60382">
        <ele>364.7</ele>
        <time>2000-01-01T00:00:00Z</time>
      </trkpt>
      <trkpt lat="47.59209" lon="6.60387">
        <ele>366.29144763794</ele>
        <time>2000-01-01T00:00:00Z</time>
      </trkpt>
      <trkpt lat="47.59196" lon="6.60395">
        <ele>368.03730332948</ele>
        <time>2000-01-01T00:00:00Z</time>
      </trkpt>
      <trkpt lat="47.59169" lon="6.60399">
        <ele>372.02</ele>
        <time>2000-01-01T00:00:00Z</time>
      </trkpt>
      <trkpt lat="47.59161" lon="6.604">
        <ele>373.38546107122</ele>
        <time>2000-01-01T00:00:00Z</time>
      </trkpt>
      <trkpt lat="47.59143" lon="6.60407">
        <ele>376.6</ele>
        <time>2000-01-01T00:00:00Z</time>
      </trkpt>
      <trkpt lat="47.59139" lon="6.60408">
        <ele>377.18026569216</ele>
        <time>2000-01-01T00:00:00Z</time>
      </trkpt>
      <trkpt lat="47.59131" lon="6.60412">
        <ele>378.50568549024</ele>
        <time>2000-01-01T00:00:00Z</time>
      </trkpt>
      <trkpt lat="47.59125" lon="6.60418">
        <ele>379.64183597619</ele>
        <time>2000-01-01T00:00:00Z</time>
      </trkpt>
      <trkpt lat="47.59124" lon="6.60421">
        <ele>379.99614876742</ele>
        <time>2000-01-01T00:00:00Z</time>
      </trkpt>
      <trkpt lat="47.59122" lon="6.60422">
        <ele>380.32750379451</ele>
        <time>2000-01-01T00:00:00Z</time>
      </trkpt>
      <trkpt lat="47.5912" lon="6.60426">
        <ele>380.84</ele>
        <time>2000-01-01T00:00:00Z</time>
      </trkpt>
      <trkpt lat="47.59115" lon="6.60433">
        <ele>381.17639391871</ele>
        <time>2000-01-01T00:00:00Z</time>
      </trkpt>
      <trkpt lat="47.59105" lon="6.60453">
        <ele>381.99083169898</ele>
        <time>2000-01-01T00:00:00Z</time>
      </trkpt>
      <trkpt lat="47.59104" lon="6.60458">
        <ele>382.15</ele>
        <time>2000-01-01T00:00:00Z</time>
      </trkpt>
      <trkpt lat="47.59099" lon="6.60497">
        <ele>381.91</ele>
        <time>2000-01-01T00:00:00Z</time>
      </trkpt>
      <trkpt lat="47.59097" lon="6.60513">
        <ele>381.71117000093</ele>
        <time>2000-01-01T00:00:00Z</time>
      </trkpt>
      <trkpt lat="47.5909" lon="6.60535">
        <ele>381.41801764432</ele>
        <time>2000-01-01T00:00:00Z</time>
      </trkpt>
      <trkpt lat="47.59082" lon="6.6055">
        <ele>381.34638666325</ele>
        <time>2000-01-01T00:00:00Z</time>
      </trkpt>
      <trkpt lat="47.59073" lon="6.60557">
        <ele>381.28994150633</ele>
        <time>2000-01-01T00:00:00Z</time>
      </trkpt>
      <trkpt lat="47.59066" lon="6.60566">
        <ele>381.23848334908</ele>
        <time>2000-01-01T00:00:00Z</time>
      </trkpt>
      <trkpt lat="47.59063" lon="6.60571">
        <ele>381.21341585297</ele>
        <time>2000-01-01T00:00:00Z</time>
      </trkpt>
      <trkpt lat="47.59061" lon="6.60583">
        <ele>381.16711499487</ele>
        <time>2000-01-01T00:00:00Z</time>
      </trkpt>
      <trkpt lat="47.59057" lon="6.60589">
        <ele>381.13551371693</ele>
        <time>2000-01-01T00:00:00Z</time>
      </trkpt>
      <trkpt lat="47.59055" lon="6.60592">
        <ele>381.12</ele>
        <time>2000-01-01T00:00:00Z</time>
      </trkpt>
      <trkpt lat="47.59047" lon="6.606">
        <ele>381.18436891389</ele>
        <time>2000-01-01T00:00:00Z</time>
      </trkpt>
      <trkpt lat="47.59032" lon="6.60608">
        <ele>381.29061075812</ele>
        <time>2000-01-01T00:00:00Z</time>
      </trkpt>
      <trkpt lat="47.59031" lon="6.60609">
        <ele>381.3</ele>
        <time>2000-01-01T00:00:00Z</time>
      </trkpt>
      <trkpt lat="47.59022" lon="6.60616">
        <ele>381.61327358422</ele>
        <time>2000-01-01T00:00:00Z</time>
      </trkpt>
      <trkpt lat="47.59016" lon="6.60622">
        <ele>381.84104108455</ele>
        <time>2000-01-01T00:00:00Z</time>
      </trkpt>
      <trkpt lat="47.5901" lon="6.60634">
        <ele>382.16785536229</ele>
        <time>2000-01-01T00:00:00Z</time>
      </trkpt>
      <trkpt lat="47.5899" lon="6.6066">
        <ele>384.02</ele>
        <time>2000-01-01T00:00:00Z</time>
      </trkpt>
      <trkpt lat="47.58988" lon="6.60663">
        <ele>384.28067508522</ele>
        <time>2000-01-01T00:00:00Z</time>
      </trkpt>
      <trkpt lat="47.58982" lon="6.60669">
        <ele>384.98273633571</ele>
        <time>2000-01-01T00:00:00Z</time>
      </trkpt>
      <trkpt lat="47.5897" lon="6.60674">
        <ele>386.19193837159</ele>
        <time>2000-01-01T00:00:00Z</time>
      </trkpt>
      <trkpt lat="47.58965" lon="6.60675">
        <ele>386.64</ele>
        <time>2000-01-01T00:00:00Z</time>
      </trkpt>
      <trkpt lat="47.58949" lon="6.60678">
        <ele>388.36845946866</ele>
        <time>2000-01-01T00:00:00Z</time>
      </trkpt>
      <trkpt lat="47.58939" lon="6.60678">
        <ele>389.46</ele>
        <time>2000-01-01T00:00:00Z</time>
      </trkpt>
      <trkpt lat="47.58916" lon="6.60678">
        <ele>392.44023984717</ele>
        <time>2000-01-01T00:00:00Z</time>
      </trkpt>
      <trkpt lat="47.58912" lon="6.60676">
        <ele>393.03</ele>
        <time>2000-01-01T00:00:00Z</time>
      </trkpt>
      <trkpt lat="47.58887" lon="6.60661">
        <ele>397.16</ele>
        <time>2000-01-01T00:00:00Z</time>
      </trkpt>
      <trkpt lat="47.58879" lon="6.60657">
        <ele>398.27334963791</ele>
        <time>2000-01-01T00:00:00Z</time>
      </trkpt>
      <trkpt lat="47.58867" lon="6.60648">
        <ele>400.11069905703</ele>
        <time>2000-01-01T00:00:00Z</time>
      </trkpt>
      <trkpt lat="47.58861" lon="6.60647">
        <ele>400.9346988589</ele>
        <time>2000-01-01T00:00:00Z</time>
      </trkpt>
      <trkpt lat="47.58853" lon="6.60643">
        <ele>402.07569142985</ele>
        <time>2000-01-01T00:00:00Z</time>
      </trkpt>
      <trkpt lat="47.58842" lon="6.60641">
        <ele>403.5734383341</ele>
        <time>2000-01-01T00:00:00Z</time>
      </trkpt>
      <trkpt lat="47.58839" lon="6.60639">
        <ele>404.01797657115</ele>
        <time>2000-01-01T00:00:00Z</time>
      </trkpt>
      <trkpt lat="47.58835" lon="6.60639">
        <ele>404.5</ele>
        <time>2000-01-01T00:00:00Z</time>
      </trkpt>
      <trkpt lat="47.58809" lon="6.60635">
        <ele>408.52</ele>
        <time>2000-01-01T00:00:00Z</time>
      </trkpt>
      <trkpt lat="47.58797" lon="6.60634">
        <ele>410.50616854275</ele>
        <time>2000-01-01T00:00:00Z</time>
      </trkpt>
      <trkpt lat="47.58782" lon="6.60634">
        <ele>413.16</ele>
        <time>2000-01-01T00:00:00Z</time>
      </trkpt>
      <trkpt lat="47.58755" lon="6.60634">
        <ele>417.08</ele>
        <time>2000-01-01T00:00:00Z</time>
      </trkpt>
      <trkpt lat="47.58742" lon="6.60634">
        <ele>417.56308750047</ele>
        <time>2000-01-01T00:00:00Z</time>
      </trkpt>
      <trkpt lat="47.58728" lon="6.60641">
        <ele>418.12</ele>
        <time>2000-01-01T00:00:00Z</time>
      </trkpt>
      <trkpt lat="47.58703" lon="6.60654">
        <ele>417.73</ele>
        <time>2000-01-01T00:00:00Z</time>
      </trkpt>
      <trkpt lat="47.58672" lon="6.6067">
        <ele>417.42803657713</ele>
        <time>2000-01-01T00:00:00Z</time>
      </trkpt>
      <trkpt lat="47.58651" lon="6.6067">
        <ele>417.23</ele>
        <time>2000-01-01T00:00:00Z</time>
      </trkpt>
      <trkpt lat="47.58627" lon="6.6067">
        <ele>418.58476671017</ele>
        <time>2000-01-01T00:00:00Z</time>
      </trkpt>
      <trkpt lat="47.58624" lon="6.60673">
        <ele>418.78</ele>
        <time>2000-01-01T00:00:00Z</time>
      </trkpt>
      <trkpt lat="47.58623" lon="6.60674">
        <ele>418.91382858719</ele>
        <time>2000-01-01T00:00:00Z</time>
      </trkpt>
      <trkpt lat="47.58603" lon="6.60697">
        <ele>421.32</ele>
        <time>2000-01-01T00:00:00Z</time>
      </trkpt>
      <trkpt lat="47.58598" lon="6.60703">
        <ele>421.97208933135</ele>
        <time>2000-01-01T00:00:00Z</time>
      </trkpt>
      <trkpt lat="47.58587" lon="6.60709">
        <ele>423.21327157031</ele>
        <time>2000-01-01T00:00:00Z</time>
      </trkpt>
      <trkpt lat="47.58578" lon="6.6071">
        <ele>424.18</ele>
        <time>2000-01-01T00:00:00Z</time>
      </trkpt>
      <trkpt lat="47.58572" lon="6.60711">
        <ele>424.89816040973</ele>
        <time>2000-01-01T00:00:00Z</time>
      </trkpt>
      <trkpt lat="47.58551" lon="6.60712">
        <ele>427.45</ele>
        <time>2000-01-01T00:00:00Z</time>
      </trkpt>
      <trkpt lat="47.58539" lon="6.60712">
        <ele>428.67364279982</ele>
        <time>2000-01-01T00:00:00Z</time>
      </trkpt>
      <trkpt lat="47.58524" lon="6.60716">
        <ele>430.22</ele>
        <time>2000-01-01T00:00:00Z</time>
      </trkpt>
      <trkpt lat="47.58523" lon="6.60716">
        <ele>430.32420960616</ele>
        <time>2000-01-01T00:00:00Z</time>
      </trkpt>
      <trkpt lat="47.58508" lon="6.60723">
        <ele>431.75074675363</ele>
        <time>2000-01-01T00:00:00Z</time>
      </trkpt>
      <trkpt lat="47.58498" lon="6.60725">
        <ele>432.67</ele>
        <time>2000-01-01T00:00:00Z</time>
      </trkpt>
      <trkpt lat="47.58489" lon="6.60726">
        <ele>433.3744232403</ele>
        <time>2000-01-01T00:00:00Z</time>
      </trkpt>
      <trkpt lat="47.5848" lon="6.6073">
        <ele>434.11194830141</ele>
        <time>2000-01-01T00:00:00Z</time>
      </trkpt>
      <trkpt lat="47.58475" lon="6.6073">
        <ele>434.5044284588</ele>
        <time>2000-01-01T00:00:00Z</time>
      </trkpt>
      <trkpt lat="47.58473" lon="6.60732">
        <ele>434.6937942711</ele>
        <time>2000-01-01T00:00:00Z</time>
      </trkpt>
      <trkpt lat="47.58472" lon="6.60732">
        <ele>434.79</ele>
        <time>2000-01-01T00:00:00Z</time>
      </trkpt>
      <trkpt lat="47.58458" lon="6.60735">
        <ele>434.87240754578</ele>
        <time>2000-01-01T00:00:00Z</time>
      </trkpt>
      <trkpt lat="47.58444" lon="6.60741">
        <ele>434.9587425469</ele>
        <time>2000-01-01T00:00:00Z</time>
      </trkpt>
      <trkpt lat="47.58437" lon="6.60741">
        <ele>435.00021214843</ele>
        <time>2000-01-01T00:00:00Z</time>
      </trkpt>
      <trkpt lat="47.58424" lon="6.60745">
        <ele>435.07886826244</ele>
        <time>2000-01-01T00:00:00Z</time>
      </trkpt>
      <trkpt lat="47.5842" lon="6.60745">
        <ele>435.1025651776</ele>
        <time>2000-01-01T00:00:00Z</time>
      </trkpt>
      <trkpt lat="47.58419" lon="6.60744">
        <ele>435.11</ele>
        <time>2000-01-01T00:00:00Z</time>
      </trkpt>
      <trkpt lat="47.58402" lon="6.60712">
        <ele>434.17</ele>
        <time>2000-01-01T00:00:00Z</time>
      </trkpt>
    </trkseg>
  </trk>
</gpx>